Change the Weather History Date:

Sunday, December 30, 2012

  Actual Average Record
Temperature  
Mean Temperature 39 °F -  
Max Temperature 50 °F 58 °F 82 °F (1984)
Min Temperature 28 °F 38 °F 13 °F (1983)
Degree Days  
Heating Degree Days 26    
Moisture  
Dew Point 25 °F    
Average Humidity 66    
Maximum Humidity 88    
Minimum Humidity 35    
Precipitation  
Precipitation 0.00 in - - ()
Sea Level Pressure  
Sea Level Pressure 30.41 in    
Wind  
Wind Speed 6 mph (North)    
Max Wind Speed 10 mph    
Max Gust Speed -    
Visibility 10 miles    
Events      
Averages and records for this station are not official NWS values.
T = Trace of Precipitation, MM = Missing Value Source: NWS Daily Summary

Daily Weather History Graph

Daily Weather History Graph

Search for Another Location

Airport or City:

Trip Planner

Search our weather history database for the weather conditions in past years. The results will help you decide how hot, cold, wet, or windy it might be!

Date:

Astronomy

Dec. 30, 2012 Rise Set
Actual Time 6:46 AM CST 4:52 PM CST
Civil Twilight 6:19 AM CST 5:19 PM CST
Nautical Twilight 5:48 AM CST 5:49 PM CST
Astronomical Twilight 5:19 AM CST 6:19 PM CST
Moon 7:13 PM CST (12/30) 8:03 AM CST (12/30)
Length of Visible Light 10h 59m
Length of Day
10h 06m
Waning Gibbous, 95% of the Moon is Illuminated
Dec 30
Waning Gibbous
Jan 4
Last Quarter
Jan 11
New
Jan 18
First Quarter
Jan 26
Full

Hourly Weather History & Observations

Time (CST) Temp. Windchill Dew Point Humidity Pressure Visibility Wind Dir Wind Speed Gust Speed Precip Events Conditions
12:56 AM 32.0 °F 25.6 °F 24.1 °F 73% 30.36 in 10.0 mi NNW 6.9 mph - N/A   Clear
1:56 AM 30.0 °F 25.2 °F 23.0 °F 75% 30.37 in 10.0 mi NNW 4.6 mph - N/A   Clear
2:56 AM 30.0 °F 24.1 °F 23.0 °F 75% 30.38 in 10.0 mi NW 5.8 mph - N/A   Clear
3:56 AM 28.9 °F 25.2 °F 23.0 °F 78% 30.38 in 10.0 mi NNW 3.5 mph - N/A   Clear
4:56 AM 28.0 °F 22.8 °F 23.0 °F 81% 30.39 in 10.0 mi NNW 4.6 mph - N/A   Clear
5:56 AM 28.0 °F 22.8 °F 23.0 °F 81% 30.43 in 10.0 mi NW 4.6 mph - N/A   Clear
6:56 AM 28.0 °F 20.0 °F 23.0 °F 81% 30.44 in 10.0 mi NNW 8.1 mph - N/A   Clear
7:56 AM 30.0 °F 22.4 °F 23.0 °F 75% 30.46 in 10.0 mi NNW 8.1 mph - N/A   Clear
8:56 AM 33.1 °F 24.9 °F 24.1 °F 70% 30.48 in 10.0 mi North 10.4 mph - N/A   Clear
9:56 AM 37.9 °F 30.9 °F 24.1 °F 57% 30.49 in 10.0 mi NNE 10.4 mph - N/A   Clear
10:56 AM 42.1 °F 36.6 °F 24.1 °F 49% 30.48 in 10.0 mi North 9.2 mph - N/A   Clear
11:56 AM 45.0 °F 40.1 °F 24.1 °F 44% 30.43 in 10.0 mi NE 9.2 mph - N/A   Clear
12:56 PM 46.9 °F - 21.9 °F 37% 30.42 in 10.0 mi Variable 5.8 mph - N/A   Clear
1:56 PM 48.9 °F - 21.9 °F 35% 30.39 in 10.0 mi East 4.6 mph - N/A   Clear
2:56 PM 50.0 °F - 23.0 °F 35% 30.39 in 10.0 mi North 6.9 mph - N/A   Clear
3:56 PM 48.0 °F - 24.1 °F 39% 30.38 in 10.0 mi NNE 8.1 mph - N/A   Clear
4:56 PM 45.0 °F 42.6 °F 24.1 °F 44% 30.40 in 10.0 mi NNE 4.6 mph - N/A   Clear
5:56 PM 39.9 °F 37.8 °F 28.0 °F 63% 30.38 in 10.0 mi NNE 3.5 mph - N/A   Clear
6:56 PM 36.0 °F 33.3 °F 28.0 °F 73% 30.40 in 10.0 mi North 3.5 mph - N/A   Clear
7:56 PM 34.0 °F - 28.0 °F 79% 30.39 in 10.0 mi Calm Calm - N/A   Clear
8:56 PM 32.0 °F - 28.9 °F 88% 30.40 in 10.0 mi Calm Calm - N/A   Clear
9:56 PM 33.1 °F - 28.9 °F 85% 30.40 in 10.0 mi Calm Calm - N/A   Clear
10:56 PM 33.1 °F - 28.9 °F 85% 30.38 in 10.0 mi Calm Calm - N/A   Clear
11:56 PM 33.1 °F - 28.0 °F 82% 30.38 in 10.0 mi Calm Calm - N/A   Clear